"Pseudo-MPEC" for P1162je

Created 2020 Sep 17 0:07:35 UT using Find_Orb

Click here for an explanation of pseudo-MPECs

 
 Astrometry: 
     P1162je  C2020 09 14.kG1qyI%1t';oq8`!ol#sI4UT^Uw'[Astrometry_s\Jj6MIGH+qF51
     P1162je  C2020 09 14.WW$JZQMH,'Jj7rr;ETfij98k;wb3yredacted;pD0Nnkvm2#WntF51
     P1162je  C2020 09 14Of5tu!=?o/e0-'w,wBqj,@/rxMOl!X37,.lI';YFfM#L%yC+D_7dF51
     P1162je ^C2020 09 16.33172300 11 09.767-14 58 30.15   ~9GM7 22.06GVNEOCP568
     P1162je ^C2020 09 16.33267000 11 09.588-14 58 28.27   ~9GM7 22.02GVNEOCP568
     P1162je  C2020 09 16ocbv9Uxqhi$P5M1clickQ`XWL+4y0hvo2\,PQpm'c%ZDH8t^@_i=F51
     P1162je  C2020 09 16F-#4`g\]hrCs#mf+Vherehdkfor23]`K#E:*=:ktNQ;+gRs`vlcCF51
     P1162je  C2020 09 162nT3y2F\LK`reDi%5=-@X8-1fma21explanation*EY8El72lt^=F51

Station data:
(568) Mauna Kea  (N19.826116 W155.472200)  US/Hawaii.
(F51) Pan-STARRS 1, Haleakala  (N20.707235 W156.255910)  US/Hawaii.
   Observers N. Primak, A. Schultz, S. Watters, J. Thiel, T. Goggia. Measurer
   PS1 Science Consortium. 1.8-m Ritchey-Chrétien + CCD.

Orbital elements:  P1162je
   Perihelion 2020 Sep 3.501842 +/- 21.4 TT = 12:02:39 (JD 2459096.001842)
Epoch 2020 Sep 16.0 TT = JDT 2459108.5   Earth MOID: 0.3814   Ma: 0.0018
M   6.59316521 +/- 11               (J2000 ecliptic)          AutoNEOCP
n   0.52753096 +/- 0.0177           Peri.  341.11056 +/- 13
a   1.51694818 +/- 0.034            Node     4.34217 +/- 0.26
e   0.0905488 +/- 0.00975           Incl.   22.48566 +/- 1.1
P   1.87/682.41d           H 23.2   G  0.15   U 10.0  
q 1.37959031 +/- 0.0165    Q 1.65430605 +/- 0.0532
From 8 observations 2020 Sept. 14-16; mean residual 0".09
Residuals in arcseconds: 
200914 F51  .01-  .03+    200916 568  .05-  .07+    200916 F51  .15+  .11-    
200914 F51  .07+  .02+    200916 568  .01+  .03-    200916 F51  .14-  .19+    
200914 F51  .06-  .05-    200916 F51  .03+  .12-    

Ephemerides (geocentric):
Date (UTC) HH   RA              Dec         delta   r     elong  mag " sig PA
---- -- -- --  -------------   -----------  ------ ------ -----  --- ---- ---
2020 09 17 00  00 09 03.764   -14 34 37.15  .38445 1.3809 165.6 22.5 2.15 121
2020 09 17 01  00 08 55.960   -14 33 07.94  .38442 1.3809 165.7 22.5 2.38 122
2020 09 17 02  00 08 48.155   -14 31 38.65  .38438 1.3809 165.7 22.5 2.62 122
2020 09 17 03  00 08 40.349   -14 30 09.30  .38435 1.3809 165.8 22.5 2.86 123
2020 09 17 04  00 08 32.542   -14 28 39.88  .38432 1.3809 165.8 22.5 3.12 123
2020 09 17 05  00 08 24.734   -14 27 10.39  .38429 1.3809 165.8 22.5 3.37 123
2020 09 17 06  00 08 16.925   -14 25 40.84  .38426 1.3809 165.9 22.5 3.64 124
2020 09 17 07  00 08 09.115   -14 24 11.23  .38423 1.3809 165.9 22.5 3.91 124
2020 09 17 08  00 08 01.304   -14 22 41.54  .38420 1.3809 166.0 22.5 4.19 124
2020 09 17 09  00 07 53.492   -14 21 11.80  .38417 1.3809 166.0 22.5 4.47 124
2020 09 17 10  00 07 45.679   -14 19 41.98  .38414 1.3809 166.1 22.5 4.76 124
2020 09 17 11  00 07 37.866   -14 18 12.10  .38411 1.3810 166.1 22.5 5.06 124
2020 09 17 12  00 07 30.051   -14 16 42.16  .38408 1.3810 166.1 22.5 5.36 125
2020 09 17 13  00 07 22.236   -14 15 12.15  .38405 1.3810 166.2 22.5 5.67 125
2020 09 17 14  00 07 14.421   -14 13 42.08  .38402 1.3810 166.2 22.5 5.99 125
2020 09 17 15  00 07 06.604   -14 12 11.95  .38400 1.3810 166.3 22.5 6.31 125
2020 09 17 16  00 06 58.787   -14 10 41.75  .38397 1.3810 166.3 22.5 6.64 125
2020 09 17 17  00 06 50.969   -14 09 11.48  .38394 1.3810 166.3 22.5 6.98 125
2020 09 17 18  00 06 43.151   -14 07 41.16  .38392 1.3810 166.4 22.5 7.32 125
2020 09 17 19  00 06 35.332   -14 06 10.77  .38389 1.3810 166.4 22.5 7.67 125
2020 09 17 20  00 06 27.512   -14 04 40.31  .38387 1.3810 166.4 22.5 8.03 125
2020 09 17 21  00 06 19.692   -14 03 09.80  .38384 1.3810 166.5 22.5 8.39 125
2020 09 17 22  00 06 11.872   -14 01 39.22  .38382 1.3810 166.5 22.5 8.76 125
2020 09 17 23  00 06 04.051   -14 00 08.58  .38380 1.3811 166.6 22.5 9.13 125
2020 09 18 00  00 05 56.229   -13 58 37.87  .38377 1.3811 166.6 22.5 9.51 126
2020 09 18 01  00 05 48.408   -13 57 07.11  .38375 1.3811 166.6 22.5 9.90 126
2020 09 18 02  00 05 40.585   -13 55 36.28  .38373 1.3811 166.7 22.5 10.3 126
2020 09 18 03  00 05 32.763   -13 54 05.39  .38370 1.3811 166.7 22.4 10.7 126
2020 09 18 04  00 05 24.940   -13 52 34.44  .38368 1.3811 166.8 22.4 11.1 126
2020 09 18 05  00 05 17.117   -13 51 03.43  .38366 1.3811 166.8 22.4 11.5 126
2020 09 18 06  00 05 09.294   -13 49 32.36  .38364 1.3811 166.8 22.4 11.9 126
2020 09 18 07  00 05 01.470   -13 48 01.23  .38362 1.3811 166.9 22.4 12.4 126
2020 09 18 08  00 04 53.646   -13 46 30.04  .38360 1.3811 166.9 22.4 12.8 126
2020 09 18 09  00 04 45.822   -13 44 58.79  .38358 1.3811 166.9 22.4 13.2 126
2020 09 18 10  00 04 37.998   -13 43 27.47  .38356 1.3812 167.0 22.4 13.7 126
2020 09 18 11  00 04 30.174   -13 41 56.10  .38354 1.3812 167.0 22.4 14.2 126
2020 09 18 12  00 04 22.350   -13 40 24.67  .38352 1.3812 167.0 22.4 14.6 126
2020 09 18 13  00 04 14.526   -13 38 53.18  .38351 1.3812 167.1 22.4 15.1 126
2020 09 18 14  00 04 06.702   -13 37 21.63  .38349 1.3812 167.1 22.4 15.6 126
2020 09 18 15  00 03 58.877   -13 35 50.03  .38347 1.3812 167.1 22.4 16.0 126
2020 09 18 16  00 03 51.053   -13 34 18.36  .38346 1.3812 167.2 22.4 16.5 126
2020 09 18 17  00 03 43.229   -13 32 46.63  .38344 1.3812 167.2 22.4 17.0 126
2020 09 18 18  00 03 35.405   -13 31 14.85  .38342 1.3812 167.2 22.4 17.5 126
2020 09 18 19  00 03 27.582   -13 29 43.01  .38341 1.3812 167.3 22.4 18.0 126
2020 09 18 20  00 03 19.758   -13 28 11.12  .38339 1.3812 167.3 22.4 18.5 126
2020 09 18 21  00 03 11.935   -13 26 39.16  .38338 1.3812 167.3 22.4 19.1 126
2020 09 18 22  00 03 04.111   -13 25 07.15  .38337 1.3813 167.4 22.4 19.6 126
2020 09 18 23  00 02 56.289   -13 23 35.08  .38335 1.3813 167.4 22.4 20.1 126